[Iaude] MPEC W06: 2016 VT5 [a=1.83,e=0.41,i=10.9,H=24.6]

mpec at si.edu mpec at si.edu
Thu Nov 17 22:11:24 EST 2016


M.P.E.C. 2016-W06                                Issued 2016 Nov. 18, 03:07 UT
 
     The Minor Planet Electronic Circulars contain information on unusual
         minor planets and routine data on comets.  They are published
    on behalf of Division F of the International Astronomical Union by the
          Minor Planet Center, Smithsonian Astrophysical Observatory,
                          Cambridge, MA 02138, U.S.A.

             Prepared using the Tamkin Foundation Computer Network

                              MPC at CFA.HARVARD.EDU
            URL http://www.minorplanetcenter.net/    ISSN 1523-6714


                                   2016 VT5
 
Observations:
     K16V05T* C2016 11 10.37494 03 42 51.33 +07 47 58.1          20.2 VqEW006G96
     K16V05T  C2016 11 10.37921 03 42 51.68 +07 48 36.2          19.9 VqEW006G96
     K16V05T  C2016 11 10.38358 03 42 52.16 +07 49 13.8          20.2 VqEW006G96
     K16V05T  C2016 11 10.38786 03 42 52.50 +07 49 52.5          20.3 VqEW006G96
     K16V05T  C2016 11 10.40902 03 42 54.59 +07 52 57.6          20.5 VqEW006G96
     K16V05T  C2016 11 10.41012 03 42 54.73 +07 53 07.2          20.2 VqEW006G96
     K16V05T  C2016 11 10.41123 03 42 54.79 +07 53 16.8          20.4 VqEW006G96
     K16V05T KC2016 11 11.07614 03 44 20.03 +09 30 30.0                qEW006J95
     K16V05T KC2016 11 11.08781 03 44 21.23 +09 32 12.3                qEW006J95
     K16V05T KC2016 11 11.09947 03 44 22.47 +09 33 54.8          20.6 RqEW006J95
     K16V05T KC2016 11 11.12441703 44 25.35 +09 38 06.2          20.5 VqEW006Z21
     K16V05T KC2016 11 11.12769703 44 25.68 +09 38 34.9          20.3 VqEW006Z21
     K16V05T KC2016 11 11.18521903 44 31.23 +09 46 58.6          20.7 VqEW006Z21
     K16V05T KC2016 11 11.18923803 44 31.68 +09 47 33.1          20.4 VqEW006Z21
     K16V05T KC2016 11 11.19414003 44 32.18 +09 48 15.9          20.0 VqEW006Z21
     K16V05T  C2016 11 11.27400 03 44 47.87 +09 59 56.4          20.1 VqEW006G96
     K16V05T  C2016 11 11.27441 03 44 47.89 +10 00 00.3          20.0 VqEW006G96
     K16V05T  C2016 11 11.27499 03 44 47.94 +10 00 04.2          20.1 VqEW006G96
     K16V05T  C2016 11 11.27664 03 44 48.08 +10 00 19.5          20.2 VqEW006G96
     K16V05T  C2016 11 11.32098 03 44 52.22 +10 06 51.4          20.5 RoEW006926
     K16V05T  C2016 11 11.32431 03 44 52.53 +10 07 20.1          20.3 RoEW006926
     K16V05T  C2016 11 11.32764 03 44 52.83 +10 07 50.2          20.4 RoEW006926
     K16V05T KC2016 11 12.21492 03 46 47.73 +12 17 17.6          19.7 RoEW006291
     K16V05T KC2016 11 12.21725 03 46 47.95 +12 17 38.0          19.7 RoEW006291
     K16V05T KC2016 11 12.21958 03 46 48.18 +12 17 58.6          20.3 RoEW006291
     K16V05T  C2016 11 13.24302803 48 54.94 +14 45 47.2          20.3 GUEW006H01
     K16V05T  C2016 11 13.24653903 48 55.27 +14 46 17.5          20.0 GUEW006H01
     K16V05T  C2016 11 13.25504803 48 56.07 +14 47 31.2          19.9 GUEW006H01
     K16V05T  C2016 11 13.26512603 48 57.02 +14 48 58.2          20.0 GUEW006H01
 
Observer details:
291 LPL/Spacewatch II.  Observer T. H. Bressi.  1.8-m f/2.7 reflector + CCD.
926 Tenagra II Observatory.  Observers M. Schwartz, P. R. Holvorcem.  Measurer
    M. Schwartz.  0.81-m f/7 Ritchey-Chretien + CCD.
G96 Mt. Lemmon Survey.  Observer R. G. Matheny.  Measurers E. J. Christensen,
    D. C. Fuls, A. R. Gibbs, A. D. Grauer, J. A. Johnson, R. A. Kowalski,
    S. M. Larson, G. J. Leonard, R. G. Matheny, R. L. Seaman, F. C. Shelly.
    1.5-m reflector + 10K CCD.
H01 Magdalena Ridge Observatory, Socorro.  Observers W. H. Ryan, E. V. Ryan.
    Measurer W. H. Ryan.  2.4-m f/8.9 reflector + CCD.
J95 Great Shefford.  Observer P. Birtwhistle.  0.40-m f/6.0 Schmidt-Cassegrain
    + CCD.
Z21 Tenerife-LCOGT Aqawan A #1.  Observers T. Lister, S. Greenstreet, E. Gomez.
    Measurer T. Lister.  0.4-m f/8 Ritchey-Chretien + CCD.
 
Orbital elements:
2016 VT5                                                 Earth MOID = 0.0961 AU
Epoch 2017 Feb. 16.0 TT = JDT 2457800.5                 MPC
M  41.20806              (2000.0)            P               Q
n   0.39860022     Peri.  348.62478     +0.73188153     -0.66401033
a   1.8285676      Node    54.08815     +0.63909550     +0.59090369
e   0.4083234      Incl.   10.89626     +0.23644528     +0.45817367
P   2.47           H   24.6           G   0.15           U   7
Residuals in seconds of arc
161110 G96  0.1+  0.1+    161111 Z21  0.2+  0.1-    161111 926  0.4-  0.3-
161110 G96  0.7-  0.7+    161111 Z21  0.5+  0.1-    161111 926  0.5-  0.5+
161110 G96  0.2+  0.1-    161111 Z21  0.4-  0.4+    161112 291  0.0   0.4+
161110 G96  0.8-  0.9+    161111 Z21  0.2+  0.2-    161112 291  0.2-  0.3+
161110 G96  0.2-  0.1+    161111 Z21  0.2+  0.2-    161112 291  0.2-  0.5+
161110 G96  0.2+  0.1+    161111 G96  0.2+  0.3+    161113 H01  0.0   0.2-
161110 G96  0.5-  0.1-    161111 G96  0.0   0.5+    161113 H01  0.0   0.3-
161111 J95  0.2+  0.3-    161111 G96  0.1-  0.7-    161113 H01  0.0   0.1-
161111 J95  0.1+  0.4-    161111 G96  0.3-  0.1+    161113 H01  0.1+  0.2-
161111 J95  0.4+  0.1-    161111 926  0.4-  0.2+

Ephemeris:
2016 VT5                 a,e,i = 1.83, 0.41, 11                  q = 1.0819
Date    TT    R. A. (2000) Decl.     Delta      r     Elong.  Phase     V
2016 10 19    02 55 19.4 -31 56 29   0.1375  1.0959   134.0    40.9    22.1
...
2016 11 03    03 27 14.2 -09 27 12   0.1007  1.0820   152.1    25.4    21.0
...
2016 11 11    03 44 11.7 +09 20 15   0.09601 1.0840   167.6    11.3    20.4
...
2016 11 17    03 56 34.0 +23 22 38   0.1019  1.0897   172.4     6.9    20.3
2016 11 18    03 58 34.0 +25 30 36   0.1036  1.0910   171.5     7.7    20.4
2016 11 19    04 00 32.7 +27 33 46   0.1055  1.0925   170.4     8.7    20.5
...
2016 11 25    04 11 52.1 +38 01 59   0.1208  1.1029   162.6    15.5    21.1
...
2016 12 03    04 25 30.8 +47 16 13   0.1488  1.1221   154.7    22.1    21.8
...
2016 12 18    04 48 13.1 +54 44 10   0.2171  1.1719   147.0    27.2    22.8

A. U. Tomatic                (C) Copyright 2016 MPC           M.P.E.C. 2016-W06




More information about the Iaude mailing list